User: anonymous
Location: Albany
(35.0000°S, 118.0000°E)
Time: 14:50:50
(UTC-04:00)
Language:

Atlas Centaur 2 - Orbit

View from above orbital plane
View from above orbital plane
View from above satellite
View from above satellite

Ground track
Ground track

The orbit data is extracted from the following two-line orbital elements,

1 00694U 63047A   14209.08441983  .00001170  00000-0  14070-3 0  5565
2 00694 030.3600 202.1588 0598174 249.5940 132.7310 13.99561934534623
Epoch (UTC): 28 July 2014 02:01:33
Eccentricity: 0.0598174
inclination: 30.3600°
perigee height: 460 km
apogee height: 1330 km
right ascension of ascending node: 202.1588°
argument of perigee: 249.5940°
revolutions per day: 13.99561934
mean anomaly at epoch: 132.7310°
orbit number at epoch: 53462

The dashed part of the orbit path shows where the satellite is in the earth's shadow,  

DLR